#timestamp,LO_Frequency,Hit,StdDev 
1689775215.4,286047004.0,N
1689775235.2,286047003.2,N
1689775255.1,286047004.4,Y
1689775256.0,286047004.4,P
1689775275.8,286047002.7,N
1689775295.7,286046999.9,N
1689775315.5,286047000.2,N
1689775335.3,286047000.2,N
1689775355.2,286047002.0,N
1689775375.0,286047001.1,N
1689775375.9,286047001.1,N
1689775395.8,286046998.9,N
1689775415.6,286047001.0,N
1689775435.4,286047000.6,N
1689775455.3,286047001.1,N
1689775475.1,286047000.6,N
1689775495.8,286047000.9,N
1689775515.7,286047000.8,N
1689775535.5,286046998.6,N
1689775555.4,286046999.3,N
1689775575.2,286047001.1,N
1689775595.0,286046999.0,N
1689775595.9,286046999.0,N
1689775615.8,286046994.9,Y
1689775635.6,286046993.9,P
1689775655.4,286046993.6,N
1689775675.3,286046995.9,N
1689775695.1,286046994.5,N
1689775715.9,286046994.0,N
1689775735.7,286046995.0,N
1689775755.5,286047011.9,Y
1689775775.4,286047000.5,P
1689775795.2,286046997.5,N
1689775815.0,286046996.3,N
1689775815.9,286046996.3,N
1689775835.8,286046993.6,Y
1689775855.6,286046997.2,P
1689775875.5,286046997.6,P
1689775895.3,286046997.6,P
1689775915.1,286046997.1,Y
1689775935.9,286047000.8,P
1689775955.7,286047001.2,N
1689775975.6,286047002.1,N
1689775995.4,286047002.6,N
1689776015.2,286047002.4,N
1689776035.1,286046999.7,N
1689776036.0,286046999.7,N
1689776055.8,286047000.6,N
1689776075.6,286047002.7,N
1689776095.5,286047000.0,N
1689776115.3,286047000.4,N
1689776135.2,286047000.9,N
1689776155.9,286046998.5,N
1689776175.7,286046998.6,N
1689776195.6,286047000.8,N
1689776215.4,286047002.2,N
1689776235.2,286047001.7,N
1689776255.1,286047002.2,N
1689776256.0,286047002.2,N
1689776275.8,286047000.7,N
1689776295.7,286047001.9,N
1689776315.5,286047002.6,N
1689776335.3,286047001.9,N
1689776355.2,286047002.2,N
1689776375.0,286047002.5,N
1689776375.9,286047002.5,N
1689776395.7,286047003.9,N
1689776415.6,286047002.9,N
1689776435.4,286047003.6,N
1689776455.3,286047003.4,N
1689776475.1,286047001.3,N
1689776476.0,286047001.3,N
1689776495.8,286047002.8,N
1689776515.7,286047002.4,N
1689776535.5,286047002.1,N
1689776555.3,286047001.6,N
1689776575.2,286047001.3,N
1689776595.0,286047003.0,N
1689776595.9,286047003.0,N
1689776615.8,286047003.7,N
1689776635.6,286047003.8,N
1689776655.4,286047004.1,Y
1689776675.3,286047001.6,P
1689776695.1,286047004.3,P
1689776715.9,286047001.3,N
1689776735.7,286047004.0,Y
1689776755.5,286047000.6,P
1689776775.4,286046999.0,N
1689776795.2,286046999.1,N
1689776815.0,286047000.9,N
1689776815.9,286047000.9,N
1689776835.8,286046998.2,N
1689776855.6,286046998.1,N
1689776875.5,286047002.8,N
1689776895.3,286047011.9,Y
1689776915.1,286047004.4,P
1689776935.9,286047001.8,N
1689776955.7,286047002.6,N
1689776975.5,286047001.9,N
1689776995.4,286047003.8,N
1689777015.2,286047003.5,N
1689777035.1,286047001.5,N
1689777036.0,286047001.5,N
1689777055.8,286047003.3,N
1689777075.6,286047005.9,Y
1689777095.5,286047002.5,P
1689777115.3,286047000.5,P
1689777135.1,286047002.2,N
1689777155.9,286047001.9,N
1689777175.7,286046998.1,N
1689777195.6,286046998.8,N
1689777215.4,286046997.8,N
1689777235.2,286046997.0,N
1689777255.1,286046999.4,N
1689777256.0,286046999.4,N
1689777275.8,286046999.5,N
1689777295.7,286046998.4,N
1689777315.5,286046998.8,N
1689777335.3,286046996.6,N
1689777355.2,286046998.9,N
1689777375.9,286046999.6,N
1689777395.7,286046997.3,N
1689777415.6,286046995.4,N
1689777435.4,286046999.5,N
1689777455.2,286047000.8,N
1689777475.1,286046999.8,N
1689777476.0,286046999.8,N
1689777495.8,286046999.7,N
1689777515.7,286047002.6,N
1689777535.5,286047001.6,N
1689777555.3,286047002.3,N
1689777575.2,286047002.5,N
1689777595.0,286047002.3,N
1689777595.9,286047002.3,N
1689777615.8,286047000.1,N
1689777635.6,286047000.4,N
1689777655.4,286047001.9,N
1689777675.3,286047004.3,N
1689777695.1,286047004.0,N
1689777715.8,286047003.5,N
1689777735.7,286047001.3,N
1689777755.5,286047001.8,N
1689777775.4,286047000.3,N
1689777795.2,286047001.2,N
1689777815.0,286046999.2,N
1689777815.9,286046999.2,N
1689777835.8,286046998.2,N
1689777855.6,286046998.1,N
1689777875.4,286047000.3,N
1689777895.3,286047002.8,N
1689777915.1,286047000.9,N
1689777935.9,286046998.2,N
1689777955.7,286046998.9,N
1689777975.5,286046999.1,N
1689777995.4,286046998.7,N
1689778015.2,286046997.3,N
1689778035.0,286046995.3,N
1689778035.9,286046995.3,N
1689778055.8,286046999.2,N
1689778075.6,286046998.7,N
1689778095.5,286047000.7,N
1689778115.3,286046999.8,N
1689778135.1,286047000.2,N
1689778155.9,286047002.6,N
1689778175.7,286047001.9,N
1689778195.5,286047003.8,N
1689778215.4,286047003.2,N
1689778235.2,286047003.8,N
1689778255.1,286047004.2,N
1689778256.0,286047004.2,N
1689778275.8,286047001.6,N
1689778295.6,286047001.6,N
1689778315.5,286047004.4,N
1689778335.3,286047000.2,N
1689778355.1,286046999.7,N
1689778375.9,286046999.7,N
1689778395.7,286047001.9,N
1689778415.6,286047001.7,N
1689778435.4,286047003.9,N
1689778455.2,286047003.7,N
1689778475.1,286047004.2,N
1689778476.0,286047004.2,N
1689778495.8,286047001.5,N
1689778515.6,286047001.4,N
1689778535.5,286047004.4,N
1689778555.3,286047004.0,N
1689778575.2,286047001.7,N
1689778595.9,286047003.5,N
1689778615.7,286047001.3,N
1689778635.6,286047002.6,N
1689778655.4,286047002.7,N
1689778675.2,286047001.3,N
1689778695.1,286047003.7,N
1689778696.0,286047003.7,N
1689778715.8,286047004.0,N
1689778735.7,286047002.1,N
1689778755.5,286046999.7,N
1689778775.3,286047001.9,N
1689778795.2,286047002.3,N
